Pagrindinis puslapis
METAR-TAF:

METAR-TAF

Oro uostai :

Dumas, Teksasas, Jungtinės Amerikos Valstijos

platuma: 35-51-28N, ilguma: 102-00-47W, Aukštis: 1129 m

Dabartinis oras

Ataskaita buvo paskelbta 14 minutes, ne 04:15 UTC
Vėjas 8 kt iš Pietryčių
Temperatūra 23°C
Drėgmė 53%
Slėgis 1017 hPa
Matomumas: 16.1 km
Giedras dangus

METAR: KDUX 160415Z AUTO 14008KT 10SM CLR 23/13 A3003 RMK AO2 T02300129

Laikas: 23:29 (04:29 UTC)


TAF: trūkstamas

Orai ataskaitas ir orų prognozės (METAR, TAF).

turimą stotys yra geltonos ir raudonos taškus žemėlapyje.

Perkelti pele per norėdami pamatyti stoties vardą.

Tada spustelėkite, norėdami matyti oro stebėjimo ir prognozės.

Norėdami pakeisti žemėlapį: spustelėkite ant žalios mygtukų su juodo kryžiaus žemyn,; žalią mygtuką su brūkšneliu, jei norite nutolinti; arba žalių rodyklių gretimoms žemėlapius.


METAR-TAF: